Hourly Data Report for April 19, 2018

CLYDE RIVER A
NUNAVUT
Current Station Operator: NAVCAN

70°29'09.000" N
68°31'01.000" W
26.50 m
2400804
71090
YCY

Download Data

Hourly Data (April 2018)
Hourly Data Report for April 19, 2018
TIME
LST
Temp Definition
°C
Dew Point Definition
°C
Rel Hum Definition
%
Precip. Amount Definition
mm

Wind Dir Definition
10's deg

Wind Spd Definition
km/h
Visibility Definition
km
Stn Press Definition
kPa
Hmdx Definition


Wind Chill Definition


Weather Definition


00:00 -23.2 -25.0 85 0.0 LegendMM 4 16.1 102.39   -27 LegendNANA
01:00 -23.6 -25.8 82 0.0 LegendMM 4 16.1 102.36   -27 LegendNANA
02:00 -24.7 -26.8 83 0.0 LegendMM 4 16.1 102.33   -29 LegendNANA
03:00 -25.1 -27.3 82 0.0 7 8 16.1 102.29   -32 LegendNANA
04:00 -24.8 -27.0 82 0.0 1 8 16.1 102.28   -32 LegendNANA
05:00 -23.8 -26.2 81 0.0 3 5 16.1 102.26   -29 LegendNANA
06:00 -21.8 -23.9 83 0.0 11 8 16.1 102.21   -28 LegendNANA
07:00 -19.2 -21.0 86 0.0 11 5 16.1 102.19   -23 LegendNANA
08:00 -17.1 -18.9 86 0.0 LegendMM 4 16.1 102.14   -20 LegendNANA
09:00 -16.0 -17.7 87 0.0 10 13 16.1 102.08   -24 LegendNANA
10:00 -14.8 -16.7 86 0.0 14 8 16.1 102.01   -20 LegendNANA
11:00 -14.0 -16.1 85 0.0 10 8 16.1 101.96   -19 LegendNANA
12:00 -13.6 -16.1 81 0.0 10 9 16.1 101.89   -19 LegendNANA
13:00 -11.6 -14.9 77 0.0 2 5 16.1 101.82   -15 LegendNANA
14:00 -11.7 -14.2 82 0.0 10 13 16.1 101.78   -18 LegendNANA
15:00 -11.4 -14.0 81 0.0 8 9 16.1 101.74   -17 LegendNANA
16:00 -12.4 -14.6 84 0.0 8 11 16.1 101.70   -18 LegendNANA
17:00 -13.8 -15.8 85 0.0 10 8 16.1 101.66   -19 LegendNANA
18:00 -14.9 -16.6 87 0.0 7 8 16.1 101.64   -20 LegendNANA
19:00 -15.6 -17.5 86 0.0 11 9 16.1 101.57   -22 LegendNANA
20:00 -16.3 -17.9 88 0.0 7 5 16.1 101.52   -20 LegendNANA
21:00 -17.5 -20.3 79 0.0 4 5 16.1 101.45   -21 LegendNANA
22:00 -17.8 -19.6 86 0.0 33 5 16.1 101.39   -22 LegendNANA
23:00 -16.1 -18.8 80 0.0 LegendMM 4 16.1 101.32   -19 LegendNANA

Notes on Data Quality.

Legend

  • E = Estimated
  • M = Missing
  • NA = Not Available*
  • [empty] = Indicates an unobserved value
Date modified: